Theta_e
337 337 337 339 338 338 338 338 338 338 337 335 335 333 331 331 332 333 335 338 338 338 339 338 337 339 336 336 338 338 338 337 336 336 335 335 336 336 333 330 329 331 332 333 335 335 335 334 334 334 334 335 334 337 339 338 339 338 337 339 336 331
335 335 335 335 337 337 338 338 339 340 339 338 338 337 335 336 334 332 335 337 338 339 339 338 339 340 337 336 337 337 338 337 336 336 335 335 335 336 335 332 328 328 330 332 334 335 336 335 334 334 335 334 334 338 339 337 338 337 338 339 335 330
331 333 333 334 334 332 334 337 337 338 339 339 340 340 338 337 337 334 335 336 336 337 338 337 338 339 336 335 336 336 337 337 337 337 336 336 335 335 337 336 330 327 328 330 332 335 338 338 337 335 335 334 335 339 338 336 337 336 338 339 334 331
328 330 331 333 331 329 331 333 334 335 336 337 339 340 339 338 337 333 331 331 331 333 337 338 338 338 336 336 336 335 336 337 338 338 338 337 336 336 337 337 332 326 326 328 331 334 337 338 340 338 335 335 337 339 338 336 338 336 338 338 333 331
327 327 327 329 329 330 330 329 332 333 333 335 336 337 338 338 337 335 333 331 330 334 338 337 337 337 337 337 335 336 336 337 338 337 338 337 337 338 339 338 334 328 325 327 330 334 337 337 340 339 336 336 337 337 338 337 337 336 338 337 333 331
326 326 326 326 326 328 329 329 329 330 332 334 333 334 336 337 337 337 336 335 335 337 339 337 336 336 337 337 335 336 337 337 337 336 338 338 337 338 339 339 338 334 328 328 331 334 337 336 338 339 337 337 336 336 337 337 336 336 338 336 332 331
325 325 325 325 325 324 326 329 329 328 332 331 330 334 335 335 336 337 335 336 337 337 339 338 336 334 335 337 336 335 335 336 337 336 338 339 338 338 340 340 340 338 333 333 335 335 336 337 338 339 338 338 337 337 336 337 336 336 337 335 332 331
324 324 325 325 324 324 325 328 328 328 331 330 331 333 333 334 335 337 336 335 336 337 338 338 336 335 333 335 335 334 334 335 335 336 337 337 338 339 339 339 339 339 338 337 337 336 336 338 338 339 338 338 338 337 337 336 336 337 337 335 332 332
323 324 324 325 325 324 324 327 327 328 331 330 330 330 331 333 333 335 337 335 335 336 337 336 336 336 334 334 334 334 334 334 335 335 334 335 337 337 336 337 338 339 340 337 336 336 337 338 338 340 339 337 337 337 337 336 335 337 338 335 332 332
322 324 324 325 325 324 324 327 327 328 331 328 327 329 330 331 331 333 335 335 335 335 336 336 336 336 335 334 334 334 334 334 336 335 335 334 334 336 336 335 336 337 338 337 335 337 338 338 338 340 340 338 337 336 337 335 334 336 337 337 333 333
322 323 324 324 324 323 324 326 327 328 329 326 327 330 329 329 330 331 332 333 334 335 336 336 336 336 335 334 334 335 336 335 336 336 335 334 333 334 335 334 335 336 336 335 335 336 337 337 337 339 340 338 337 336 336 334 333 335 337 338 335 333
323 323 324 324 324 323 324 326 326 326 327 326 326 328 328 328 329 329 330 332 333 334 335 334 335 336 335 336 336 337 337 335 335 336 335 335 335 335 335 334 335 336 336 336 335 335 336 337 336 338 339 338 336 336 335 333 333 335 336 338 337 333
325 325 325 325 324 323 323 324 325 324 325 325 325 326 327 328 328 328 329 330 331 333 333 334 335 335 335 336 336 337 337 337 336 336 336 336 335 335 336 335 336 337 337 336 336 335 337 339 339 338 338 337 336 336 334 333 333 334 336 338 338 335
326 326 326 324 324 323 322 323 323 323 324 324 324 326 326 327 327 327 328 328 330 331 332 333 333 334 335 336 336 337 337 337 337 337 337 336 335 336 338 336 336 337 336 335 336 336 336 338 340 339 337 336 336 336 336 335 333 334 336 338 338 337
326 326 324 322 322 322 321 321 321 323 323 323 324 325 325 326 326 326 327 327 328 329 330 331 332 332 333 334 336 336 336 336 336 338 338 337 337 338 339 337 336 337 336 335 335 336 335 336 339 339 337 337 337 337 337 336 332 333 335 336 337 338
325 325 323 320 320 320 320 319 320 322 321 321 323 324 324 325 325 326 326 327 327 327 328 328 329 331 331 332 334 335 336 336 335 337 338 338 338 338 339 338 337 336 336 336 336 335 334 336 337 338 338 337 338 338 338 337 333 332 334 335 337 337
324 324 322 320 319 318 319 318 320 321 320 321 322 323 323 323 324 325 325 326 326 326 326 327 327 328 329 330 332 333 334 335 335 335 337 337 338 337 338 338 337 337 336 336 336 335 334 335 335 336 337 337 338 339 338 338 335 333 334 335 336 337
323 323 321 320 318 318 318 319 320 321 320 320 320 321 322 322 323 324 324 325 325 325 325 326 326 327 328 328 330 331 332 334 335 335 336 337 337 337 338 337 337 337 337 337 337 336 335 335 335 335 335 336 338 339 339 337 336 335 334 334 334 336
322 321 320 320 318 319 319 319 320 320 319 319 319 319 320 321 322 322 322 323 323 323 323 324 325 325 326 327 328 329 329 332 333 334 336 336 337 336 336 337 338 338 337 337 338 338 336 335 335 334 333 335 336 338 339 338 337 337 336 335 334 334
322 321 320 320 319 320 320 319 319 319 318 318 318 319 319 319 321 320 321 321 321 322 322 323 323 323 324 326 326 327 328 330 331 333 335 336 336 335 335 336 337 337 336 337 337 337 338 338 336 334 333 334 336 337 338 338 338 338 337 336 335 334
322 321 320 321 321 320 320 319 319 318 318 318 317 318 318 318 319 319 320 320 321 321 321 322 322 322 323 324 325 325 327 329 329 331 332 334 335 335 335 336 337 337 336 337 338 336 337 339 337 336 335 334 335 335 337 339 338 338 339 336 335 335
322 322 321 321 321 320 319 319 319 318 318 317 317 317 317 317 318 318 319 319 320 321 321 321 321 321 322 323 324 324 326 327 327 329 330 331 333 334 335 336 336 336 336 336 337 336 337 338 337 336 335 334 335 335 335 337 338 339 338 337 335 335
322 322 321 321 322 321 319 319 318 318 317 317 317 317 317 318 317 317 318 318 319 320 320 320 320 321 322 322 323 324 325 326 326 328 329 330 332 333 334 335 335 336 337 337 337 337 337 338 337 335 334 336 337 337 336 336 337 338 338 337 336 335
323 322 322 322 322 321 319 319 318 317 317 317 317 317 317 317 317 317 318 318 318 319 319 319 319 319 320 321 321 323 324 325 326 327 328 329 331 332 332 334 334 335 336 336 337 337 337 337 337 336 335 337 337 337 338 336 334 336 337 337 336 335
323 323 322 322 322 321 320 319 318 317 317 317 316 317 317 317 316 317 317 317 317 318 318 318 318 319 319 320 321 322 323 324 325 325 326 328 330 331 331 333 334 335 335 335 336 337 336 335 337 337 336 337 336 337 339 335 333 336 337 337 337 336
324 323 321 321 322 321 320 319 319 317 317 317 316 316 317 317 317 317 317 317 317 317 317 317 318 318 319 320 320 322 324 325 325 325 325 327 328 330 331 332 333 334 335 334 335 336 335 335 337 337 335 336 337 338 338 335 337 340 337 336 337 337
323 323 321 321 321 321 320 320 319 318 317 316 316 316 316 316 317 317 317 318 317 318 318 319 319 319 319 319 320 322 324 325 325 325 326 327 329 330 330 332 333 333 334 334 334 335 336 335 336 336 335 336 336 335 335 336 338 340 338 337 337 337
322 322 322 321 321 321 320 320 319 318 317 316 315 316 316 316 317 317 317 317 317 318 319 319 319 320 319 319 321 323 324 325 325 325 326 327 328 329 330 331 332 333 333 334 334 334 334 334 334 334 334 335 335 334 335 336 336 337 338 339 338 337
323 323 323 321 321 321 320 320 319 318 317 316 315 315 316 316 317 317 317 317 317 319 320 319 319 319 319 319 321 324 324 325 325 325 326 327 327 328 329 330 331 332 333 333 333 334 334 333 333 333 333 333 333 334 335 335 335 334 335 338 340 338
324 323 323 322 321 321 320 319 319 318 317 316 315 315 315 316 317 317 317 317 318 319 320 320 320 319 319 319 321 324 324 324 324 325 325 326 325 327 328 329 330 331 332 332 333 333 334 333 333 334 333 332 333 334 335 334 335 335 335 337 339 338
324 323 323 322 322 321 320 320 319 318 317 317 316 315 315 316 316 317 316 316 317 318 320 321 321 320 320 319 321 323 324 324 324 324 324 324 325 326 327 327 328 330 331 331 332 333 333 333 334 334 334 332 333 334 335 334 334 335 335 336 337 337
324 324 323 322 322 321 320 320 319 318 317 317 316 314 315 316 316 317 317 316 317 319 320 321 321 322 321 321 320 321 323 323 323 323 323 324 324 325 325 326 327 329 330 330 331 331 332 333 333 333 333 333 333 333 333 333 333 333 334 336 337 337
325 324 323 323 322 321 321 320 319 318 317 317 316 314 314 315 316 316 316 316 317 319 320 321 322 322 322 322 321 321 321 322 322 323 323 324 324 324 325 326 326 328 329 330 330 330 331 333 332 332 333 333 334 333 333 332 332 332 334 335 335 336
324 324 323 323 322 321 320 320 319 318 317 317 316 314 314 315 315 315 316 316 317 319 320 321 322 321 322 322 321 321 321 321 322 322 323 323 324 324 324 325 326 327 328 329 330 330 331 332 333 333 333 333 334 334 334 333 331 332 335 335 335 335
325 324 323 323 322 321 320 320 319 319 317 317 316 315 314 314 315 315 316 317 318 319 320 321 321 321 322 321 321 321 321 321 321 322 323 323 323 324 324 324 325 326 327 328 329 330 330 331 332 333 333 333 334 334 334 334 332 332 334 335 335 334
325 324 323 323 322 321 320 320 319 319 318 317 316 315 313 314 314 315 316 318 319 320 320 321 321 321 321 321 321 320 320 320 320 320 321 322 323 323 324 324 325 325 326 327 328 329 330 331 331 332 332 332 332 333 333 333 333 333 333 335 335 335
326 324 322 322 322 321 320 320 320 319 318 317 316 315 314 313 314 315 317 318 319 320 320 320 321 321 321 320 320 319 319 319 319 319 319 320 321 323 323 323 324 324 325 326 327 328 329 331 331 332 332 332 331 332 333 333 333 333 333 334 335 334
Wind_Speed
7 6 5 4 3 3 6 6 7 7 8 7 4 4 6 6 3 2 3 4 3 2 1 1 1 1 1 1 2 4 3 3 3 3 4 4 5 5 6 7 7 8 8 7 5 4 3 4 4 4 5 4 5 3 2 3 4 5 9 11 13 13
8 7 6 5 4 5 6 6 5 6 7 8 7 4 4 4 2 3 4 5 4 3 3 2 2 2 3 2 3 3 3 4 4 4 5 5 6 7 7 8 8 9 10 9 8 6 4 5 5 5 5 4 4 2 2 3 3 5 10 12 13 14
8 8 7 6 6 5 5 6 6 6 6 7 7 6 3 2 2 2 4 5 4 4 5 5 5 4 4 3 3 4 4 5 5 5 6 7 8 8 8 9 9 10 10 11 11 9 7 7 6 6 6 5 3 2 3 4 5 7 11 12 14 14
8 8 7 6 6 6 6 6 6 7 7 8 7 6 5 3 4 2 2 2 3 4 7 7 5 4 5 4 4 4 3 4 6 7 7 7 8 9 10 10 10 10 12 13 12 11 11 10 7 6 6 5 4 3 4 5 5 7 11 12 14 15
8 8 8 7 6 7 7 7 6 6 8 8 7 7 6 4 4 2 2 2 4 5 8 8 5 5 5 5 4 3 4 3 6 7 7 9 9 10 11 11 11 11 13 14 13 13 14 12 9 7 7 5 5 5 5 4 4 8 13 13 14 15
9 8 9 8 7 7 7 8 7 7 8 7 6 7 7 6 4 2 2 3 5 6 8 8 6 6 6 6 5 4 5 4 6 8 8 10 11 12 12 13 13 14 14 12 14 17 15 13 13 10 7 6 5 6 6 5 4 11 14 13 14 15
10 10 9 9 9 7 7 8 8 8 9 7 7 8 8 8 7 4 2 3 5 5 6 8 8 8 8 8 6 5 5 6 9 10 9 11 13 13 15 17 16 16 16 14 15 18 15 12 13 11 8 7 7 7 6 5 7 13 14 13 15 16
12 11 11 10 9 9 8 8 9 9 9 9 9 8 7 8 8 6 4 3 4 5 5 8 9 9 9 9 7 6 6 8 10 11 13 14 15 15 18 20 18 17 18 15 12 15 16 13 11 10 9 8 9 8 6 7 9 13 12 13 17 16
13 12 12 11 9 10 9 8 9 9 8 10 10 8 8 7 6 6 6 5 5 5 6 9 11 11 10 9 7 6 6 8 10 12 15 17 17 17 18 20 20 19 18 15 11 14 16 13 11 10 9 8 9 8 7 7 9 14 12 13 18 18
15 14 13 11 10 11 10 8 10 9 8 9 8 8 9 8 6 6 7 7 6 6 7 9 10 12 12 10 8 6 6 7 10 13 13 17 17 17 19 22 23 19 14 13 13 15 16 13 11 10 8 9 10 9 9 8 8 13 13 13 18 18
15 14 13 13 11 12 11 9 9 8 8 10 8 8 8 7 8 7 8 9 9 7 7 8 10 12 13 12 9 7 7 7 10 13 14 17 16 17 23 26 24 16 10 8 10 15 14 12 11 10 8 8 10 10 11 10 7 11 14 14 17 18
14 14 13 13 12 13 13 10 9 9 9 9 9 9 7 7 8 8 8 9 9 9 8 8 9 11 13 13 10 7 9 11 11 13 15 16 14 16 21 24 21 14 10 6 7 12 12 9 9 10 9 8 8 9 10 10 6 9 15 15 16 18
12 12 14 14 13 14 14 11 10 10 9 8 9 9 8 7 8 8 8 8 8 9 10 9 9 9 11 11 10 8 10 12 13 13 14 15 15 16 18 18 18 13 11 7 4 8 10 8 7 9 9 7 6 7 10 9 4 8 15 15 16 17
10 11 13 13 13 13 14 12 10 10 9 9 9 9 8 8 8 8 8 8 7 9 11 11 11 10 10 9 9 9 10 12 14 15 15 16 15 16 16 14 14 13 10 7 4 6 7 6 2 4 7 7 6 6 9 8 4 8 15 15 16 16
9 10 12 14 12 12 14 13 10 10 9 9 10 8 9 8 8 8 8 8 8 9 10 11 12 13 13 11 9 9 10 12 15 15 15 15 14 14 15 13 12 14 12 10 8 5 4 5 3 2 1 4 5 6 7 8 6 6 10 14 15 16
9 10 11 13 13 12 13 13 11 10 9 10 9 7 7 8 8 8 8 9 10 11 11 11 12 13 14 14 12 11 11 12 14 14 13 14 14 15 15 12 13 14 10 9 11 8 4 4 4 2 0 2 2 4 6 7 9 6 6 13 14 15
9 9 10 12 14 13 13 13 11 9 10 10 8 7 6 6 8 8 8 9 11 12 12 11 12 12 13 14 13 13 12 11 14 14 13 14 14 14 13 11 12 13 9 6 8 9 6 5 4 1 1 3 4 4 6 7 9 8 4 11 13 13
9 9 10 11 13 13 12 13 11 10 11 10 8 9 7 6 8 9 9 10 11 13 13 13 13 13 13 13 12 13 13 12 14 14 13 14 12 11 11 10 12 12 11 8 7 7 7 5 5 3 2 5 7 6 7 8 9 9 7 6 11 13
9 9 9 9 11 12 12 13 11 10 11 10 9 9 8 7 7 7 9 10 12 13 13 13 13 13 14 14 13 13 14 14 15 14 13 13 12 11 10 10 11 11 12 11 7 5 5 5 6 4 5 7 7 7 8 8 10 11 9 8 7 12
7 9 8 8 10 11 11 12 12 12 11 10 10 9 9 9 8 9 11 11 12 13 13 14 14 14 14 14 15 14 14 14 15 15 13 13 12 12 11 9 10 12 13 12 8 4 3 4 2 2 4 7 7 9 9 8 10 11 11 11 7 6
5 6 8 7 9 10 11 12 12 12 12 10 10 9 10 10 10 11 12 11 12 13 13 14 14 14 14 14 14 14 14 14 15 15 15 14 13 13 13 11 11 12 12 11 7 4 5 4 4 6 5 8 7 7 8 8 9 11 13 14 9 5
4 4 6 7 8 9 10 11 11 12 12 10 10 9 10 10 10 10 11 11 12 12 12 12 13 14 14 14 14 13 14 14 15 15 16 16 15 14 14 12 11 12 13 11 8 6 6 4 4 8 7 3 5 6 7 8 9 11 13 15 13 8
4 4 4 6 7 8 9 10 10 12 11 9 9 10 11 11 11 11 12 12 13 13 12 12 13 14 15 14 13 14 14 14 14 15 17 17 17 15 14 13 12 12 12 10 8 7 7 6 6 9 8 3 1 2 5 7 9 12 15 16 15 11
3 3 3 5 6 6 8 9 10 11 10 8 9 10 11 12 13 13 13 14 14 14 14 13 13 14 14 14 13 14 14 14 14 14 16 17 17 16 16 15 12 11 11 11 9 7 7 8 10 10 5 3 3 2 1 3 6 11 15 17 16 14
4 3 3 3 4 5 7 9 11 12 11 9 9 10 11 13 13 12 12 14 15 15 14 14 14 13 12 13 13 13 13 14 14 15 15 16 16 17 17 16 13 12 13 13 11 9 8 8 10 10 7 4 3 1 2 2 3 7 11 15 16 16
4 4 2 3 3 5 6 8 11 14 13 11 11 12 12 13 13 12 12 12 13 13 13 13 14 13 12 12 12 12 12 13 14 15 15 15 16 16 17 17 15 13 12 13 11 10 9 8 8 9 11 8 3 2 3 4 2 2 6 11 13 16
4 4 3 2 2 4 6 7 10 12 13 12 12 12 12 12 13 13 12 12 13 13 13 12 13 13 12 12 12 10 10 12 13 14 15 14 15 16 17 17 16 14 12 12 10 10 10 9 7 7 10 12 10 7 5 5 3 1 2 5 10 14
4 4 3 3 2 3 5 6 8 11 13 12 11 11 11 11 12 14 13 13 13 14 12 11 12 13 12 12 11 9 9 11 12 14 14 14 14 16 16 16 15 14 12 11 10 10 12 10 8 7 7 10 12 12 11 9 7 4 2 1 4 8
5 5 4 2 2 2 4 5 7 10 13 12 11 11 11 11 12 13 14 14 14 14 13 11 11 12 12 13 11 9 9 11 12 14 14 14 15 15 16 14 14 14 12 11 11 10 11 12 10 9 9 10 10 13 13 12 12 11 6 3 2 3
6 5 5 3 2 1 3 4 5 8 12 13 12 12 12 12 13 13 14 14 13 14 15 14 12 11 12 12 11 9 10 11 12 13 13 14 15 15 15 16 15 15 13 12 12 11 11 12 11 10 11 10 10 12 10 9 12 13 10 5 3 2
7 6 5 4 2 1 2 3 4 7 11 13 13 12 12 12 13 13 13 14 14 13 14 14 12 12 12 12 11 10 10 11 12 13 14 15 16 15 15 16 17 16 14 13 13 12 12 13 11 10 11 12 13 13 10 7 8 11 9 5 4 3
8 7 5 4 3 1 1 2 4 6 9 12 13 12 12 11 12 13 13 14 14 13 14 14 13 14 14 13 13 11 11 11 13 14 15 16 17 16 15 16 17 17 16 14 13 13 13 14 13 12 13 13 15 15 14 11 8 9 11 10 7 3
9 8 6 6 4 2 0 1 3 5 8 10 12 12 11 11 12 13 14 15 14 13 14 15 14 15 15 14 14 13 12 12 13 14 15 16 17 17 16 16 17 17 17 15 14 13 13 14 14 14 13 13 15 17 17 15 11 11 12 12 9 6
10 8 8 7 5 3 1 0 1 4 6 9 11 11 9 9 10 12 13 14 14 13 14 15 15 14 14 14 14 14 13 13 13 13 14 15 16 16 16 16 17 18 17 16 15 14 13 14 14 13 13 14 15 17 18 17 15 14 14 13 12 10
10 8 9 8 5 4 3 1 0 2 5 8 11 12 9 7 9 10 12 13 13 14 14 15 14 13 13 13 13 14 13 13 13 12 12 14 14 14 15 16 17 18 17 17 17 17 16 15 14 14 14 14 15 16 17 17 16 16 17 17 16 16
10 9 10 9 7 6 4 3 2 2 4 7 11 12 8 8 10 10 10 12 13 14 14 14 14 13 12 12 13 13 13 13 14 13 13 13 13 13 14 15 16 17 18 17 17 17 17 16 15 14 13 13 15 16 16 17 18 20 20 20 19 19
10 9 10 10 9 7 6 4 3 3 3 6 11 13 11 10 11 10 10 11 12 14 14 14 12 11 12 12 13 13 13 14 15 15 15 14 13 13 14 15 15 16 17 17 18 18 17 17 16 14 13 13 14 16 16 16 18 20 21 21 20 18
Wind_Direction
49 47 46 36 48 15 2 10 359 355 1 1 9 34 45 54 33 358 5 347 322 294 261 147 98 221 271 307 259 252 248 242 246 268 268 266 269 267 264 253 243 234 226 221 217 213 205 201 192 183 183 183 176 147 140 147 103 122 137 141 147 142
37 38 38 30 33 20 9 11 358 345 348 347 348 3 38 65 23 335 339 342 333 306 281 237 205 217 253 274 272 269 263 257 251 260 268 267 265 267 268 262 252 240 230 226 225 223 232 234 212 197 198 194 178 161 188 162 112 129 141 148 152 145
35 37 35 27 20 13 6 3 355 345 341 339 339 340 1 75 72 343 324 338 336 314 290 250 221 233 260 264 268 271 266 264 259 259 266 266 266 265 262 264 260 246 237 232 228 225 230 232 229 222 207 202 192 174 183 155 116 135 152 157 153 148
37 35 35 28 12 12 14 6 359 352 342 340 343 335 336 37 77 49 325 325 300 290 280 255 225 230 247 254 265 269 271 275 271 270 271 265 265 269 264 264 261 248 239 233 228 230 232 225 222 229 219 214 199 186 186 157 118 140 159 162 156 151
40 34 34 31 18 13 11 11 14 2 347 347 350 340 334 4 65 61 279 256 253 263 271 266 249 240 233 238 249 263 279 284 280 279 277 268 261 263 264 262 260 251 239 231 228 231 237 228 214 220 224 216 196 185 184 166 126 146 160 163 159 155
46 37 34 31 23 16 10 9 9 6 357 349 349 351 345 349 27 50 266 234 232 248 268 275 267 252 240 235 226 241 269 275 278 273 266 263 254 252 256 254 250 252 244 232 231 231 237 229 212 215 216 203 199 196 186 172 144 157 165 165 163 160
46 38 37 36 26 19 18 8 1 5 0 354 358 2 0 350 353 6 333 248 236 243 271 283 272 256 248 244 237 240 252 260 270 269 265 263 256 253 256 252 243 245 244 237 231 228 229 217 204 207 202 191 195 201 199 186 160 165 170 168 166 166
48 40 38 40 31 21 21 11 1 7 6 2 2 2 10 359 347 352 347 302 269 254 267 281 280 275 261 249 249 254 255 260 266 268 270 264 258 257 257 257 248 239 241 239 231 225 222 205 194 201 202 196 191 194 198 189 168 163 168 170 169 169
50 43 39 39 32 21 22 17 6 12 12 1 358 3 13 3 350 348 338 327 304 281 271 274 281 289 282 268 266 270 269 272 274 274 271 261 255 255 256 255 246 239 240 237 228 221 217 203 191 194 203 202 192 193 190 188 174 161 165 172 171 173
49 45 41 41 34 20 22 21 10 14 9 358 2 7 5 1 358 356 342 335 322 299 287 282 285 292 291 288 290 295 291 285 287 286 277 265 256 254 261 259 248 242 236 232 230 218 205 202 202 191 197 205 196 195 184 180 175 163 165 170 172 176
47 46 43 43 36 21 23 22 11 14 4 357 6 2 354 1 358 358 353 341 333 321 304 296 299 298 295 297 303 308 297 279 274 277 274 269 261 255 264 265 260 256 239 222 223 220 205 196 202 190 196 207 193 195 186 174 170 164 163 168 177 179
45 45 43 44 39 26 25 22 15 14 4 359 8 360 353 2 355 353 353 343 338 332 319 309 308 305 301 300 303 301 291 280 271 272 273 273 269 263 265 265 266 275 267 238 199 214 212 193 192 190 203 211 192 202 196 182 179 169 165 173 184 184
45 42 41 42 39 30 26 23 19 12 4 3 7 360 356 0 353 350 349 348 343 334 335 329 318 312 306 303 302 293 287 285 280 280 278 272 267 262 264 263 266 278 272 255 209 212 221 208 187 185 202 220 216 204 188 192 210 170 166 174 182 185
46 41 39 38 35 30 26 24 19 11 5 358 358 355 0 0 350 350 347 353 355 348 352 344 332 327 319 312 303 288 280 279 276 279 281 274 260 254 260 263 271 283 279 270 244 217 234 247 209 176 201 212 208 189 187 207 219 160 164 172 176 183
48 45 40 35 33 26 22 23 16 12 6 356 355 351 1 5 354 353 347 346 356 358 357 347 341 339 335 328 311 293 285 277 272 276 284 282 270 266 273 277 282 287 294 310 300 260 256 281 312 17 232 217 192 185 206 215 203 171 171 178 177 182
49 48 42 35 32 24 19 19 15 14 8 360 358 348 355 4 352 349 346 344 350 353 351 345 345 341 339 337 327 314 298 286 279 275 280 282 276 278 284 288 290 286 289 306 300 293 298 280 284 31 88 267 260 212 223 219 212 221 189 182 184 186
51 46 40 33 29 24 18 14 13 15 10 6 360 347 350 356 349 352 355 354 351 349 346 344 344 340 339 340 336 329 316 303 295 286 282 281 279 283 286 286 290 289 281 267 273 278 286 300 300 305 161 243 281 268 247 235 227 242 227 183 185 189
52 47 40 32 26 23 20 15 16 15 11 12 2 354 1 359 349 353 357 356 350 347 347 345 342 339 339 338 337 335 330 321 307 300 292 284 282 287 287 282 283 286 279 264 252 247 242 264 272 268 307 248 243 261 253 241 235 245 265 218 190 190
55 48 41 36 28 24 22 17 15 15 12 12 6 0 4 0 352 353 357 352 344 343 344 342 339 338 338 336 335 333 330 328 320 314 302 291 287 288 289 283 280 281 276 269 261 240 210 225 244 249 308 289 253 249 244 238 241 246 258 263 229 200
61 50 41 38 32 27 24 17 14 12 6 9 11 4 1 4 3 357 357 352 341 340 339 334 334 334 335 334 334 332 327 326 326 321 310 302 299 295 293 281 277 279 273 269 270 262 234 234 218 174 256 271 247 231 232 233 241 249 250 256 265 219
76 55 42 39 36 34 26 17 15 7 359 5 10 5 1 1 358 351 349 348 339 335 334 331 331 330 330 330 329 330 328 325 325 324 318 312 307 304 299 284 278 282 276 270 270 257 237 226 134 126 197 241 244 234 235 238 241 253 255 250 257 264
94 70 46 42 39 40 31 21 18 8 0 6 6 3 4 358 357 356 349 344 338 334 334 332 331 329 326 326 328 328 325 324 323 321 321 318 315 310 301 288 276 275 276 272 266 243 214 201 150 144 153 200 269 273 255 248 245 251 255 249 249 261
103 90 53 45 44 42 33 26 22 12 6 8 4 1 2 359 360 0 351 344 342 342 341 334 328 326 324 326 332 333 328 327 325 322 322 321 320 315 304 296 280 267 271 269 263 246 221 211 177 150 130 125 230 291 272 265 261 256 251 246 246 242
124 105 70 48 44 44 32 25 23 15 11 12 8 2 359 358 357 353 347 344 344 343 338 330 325 321 319 322 326 329 330 330 328 325 323 320 319 318 311 305 291 268 263 261 255 247 231 217 191 167 139 118 132 140 252 269 268 260 250 245 246 239
147 123 90 57 45 46 31 23 22 14 13 16 12 10 6 359 353 345 342 342 341 339 334 326 323 318 312 314 317 320 326 330 329 326 323 320 318 318 314 310 299 278 267 262 256 250 244 227 205 197 184 144 111 135 175 168 242 245 237 239 240 236
161 153 117 71 53 50 33 24 24 15 10 13 15 17 11 358 345 338 338 338 334 331 329 322 318 318 310 303 306 311 323 329 328 326 324 320 318 316 315 312 306 294 276 264 258 254 250 234 219 220 214 207 212 161 147 151 162 217 228 237 235 229
175 163 141 94 62 54 42 27 27 18 6 11 20 17 7 353 340 335 335 334 329 323 324 322 317 319 314 304 303 308 322 329 327 329 327 323 319 316 314 312 312 308 292 274 263 258 254 237 221 228 224 224 233 234 215 193 173 158 217 241 236 229
185 167 152 115 81 55 49 35 30 18 2 11 25 13 359 349 339 337 334 330 327 322 323 326 321 322 317 306 306 314 326 330 329 332 332 329 326 322 320 318 315 315 306 287 267 259 265 256 229 220 221 223 232 240 236 222 214 209 161 211 235 229
197 182 172 141 110 68 52 42 35 16 359 8 24 10 353 345 339 339 335 329 326 326 328 329 324 327 323 310 309 321 331 331 331 332 332 333 333 332 334 331 323 321 312 295 277 264 269 269 250 231 228 222 223 230 227 225 227 220 205 204 209 210
206 195 179 166 141 89 61 45 35 18 360 3 15 8 355 347 343 341 337 330 326 327 330 328 324 328 327 317 315 322 326 327 330 330 329 333 334 335 339 339 333 326 319 308 294 278 266 266 260 243 235 224 216 218 215 217 221 215 211 212 220 239
208 203 184 176 169 102 67 49 31 19 5 0 6 7 357 346 340 338 335 328 322 324 328 330 332 333 330 326 321 317 317 322 326 326 327 330 331 333 336 338 337 330 325 318 303 288 275 268 263 250 244 236 226 219 214 216 215 215 222 217 209 243
212 205 194 190 184 174 78 55 28 17 6 359 2 5 358 345 340 339 334 324 322 326 329 332 336 336 334 334 330 321 316 319 323 324 326 328 328 331 335 336 336 333 328 322 311 297 284 275 268 259 251 245 239 233 230 236 232 228 236 230 214 213
212 204 200 202 193 191 166 56 25 16 4 359 3 4 357 347 343 342 332 323 323 326 328 331 333 334 334 337 338 332 322 320 321 321 323 325 325 329 335 336 335 333 330 326 320 306 285 273 271 267 258 250 245 240 237 237 229 225 232 228 220 220
209 203 200 202 197 204 209 240 10 13 356 351 358 357 352 343 335 334 325 317 319 321 324 327 327 330 332 333 336 337 334 328 323 321 321 323 324 327 332 334 333 333 330 327 324 315 297 280 275 272 263 251 244 244 245 240 227 223 226 220 213 217
206 200 198 200 200 207 207 206 252 3 341 343 350 345 345 344 332 327 318 313 316 319 321 322 323 325 327 329 333 335 337 333 328 326 324 325 325 326 330 330 331 332 331 329 324 320 314 299 284 276 267 255 247 249 251 241 225 221 226 222 215 216
204 199 198 202 202 207 210 205 219 295 319 337 343 339 346 351 336 324 315 312 316 319 321 322 322 322 323 327 329 329 331 332 331 329 326 326 326 327 328 327 329 331 330 329 326 322 319 310 296 283 273 261 249 247 246 238 229 227 228 227 221 217
203 201 200 202 200 204 208 209 222 256 296 322 336 342 354 355 336 324 315 312 316 321 323 324 322 320 322 324 323 325 329 331 332 329 325 323 322 323 325 324 326 327 326 327 327 326 322 313 301 288 277 265 248 245 245 238 238 237 231 228 226 223